Old browser warning

Site look funky?  Your browser is either Internet Explorer (hit refresh (F5) several times due to a bug in Microsoft's code that we can't work around) or is 10 years old and standards-based layouts and styling confuse it.   Consider updating.  One excellent option is Mozilla Firefox, versions of which are available for Linux, Mac and Windows. Safari 1.0+ and IE 6.0+ are also supported.

Toccoa near Dial [ USA-GEO ]

Edit Gauge

Current Conditions

Reading of "n/a" = frozen gauge or gauge error.
Reading Trend Type Updated
808 cfs 0 cfs/hr Flow -05h47m
2.60 ft 0.00 ft/hr Feet Stage -05h47m

Station Description

AW Gauge ID: 50477
Source: tva
Station: td019
Enabled yes
Data is courtesy of TVA. These provisional data have not been reviewed or edited, and may be subject to significant change. Source Gauge's Page

Information

Feet Stage

Gauge History

Times listed in GMT 24h, ET and PT hours provided for convenience Graphs in GMT. Readings of "n/a" constitute a frozen gauge or gauge error.
Reading Updated (GMT) Eastern Pacific Comment
2.60 01/16/2019 04:58:40 Jan 15 11:58 pm Jan 15 8:58 pm
2.60 01/15/2019 21:58:24 Jan 15 04:58 pm Jan 15 1:58 pm
2.59 01/15/2019 20:58:40 Jan 15 03:58 pm Jan 15 12:58 pm
2.60 01/15/2019 19:58:56 Jan 15 02:58 pm Jan 15 11:58 am
2.60 01/15/2019 18:59:12 Jan 15 01:59 pm Jan 15 10:59 am
2.61 01/15/2019 17:59:28 Jan 15 12:59 pm Jan 15 9:59 am
2.60 01/15/2019 16:00:00 Jan 15 11:00 am Jan 15 8:00 am
2.62 01/15/2019 14:58:08 Jan 15 09:58 am Jan 15 6:58 am
2.61 01/15/2019 13:58:24 Jan 15 08:58 am Jan 15 5:58 am
2.61 01/15/2019 12:58:40 Jan 15 07:58 am Jan 15 4:58 am
2.63 01/15/2019 11:58:56 Jan 15 06:58 am Jan 15 3:58 am
2.63 01/15/2019 10:59:12 Jan 15 05:59 am Jan 15 2:59 am
2.62 01/15/2019 09:59:28 Jan 15 04:59 am Jan 15 1:59 am
2.62 01/15/2019 08:59:44 Jan 15 03:59 am Jan 15 12:59 am
2.63 01/15/2019 08:00:00 Jan 15 03:00 am Jan 15 12:00 am
2.63 01/15/2019 06:58:08 Jan 15 01:58 am Jan 14 10:58 pm
2.65 01/15/2019 05:58:24 Jan 15 12:58 am Jan 14 9:58 pm
2.70 01/15/2019 04:58:40 Jan 14 11:58 pm Jan 14 8:58 pm
2.65 01/15/2019 03:58:56 Jan 14 10:58 pm Jan 14 7:58 pm
2.64 01/15/2019 02:59:12 Jan 14 09:59 pm Jan 14 6:59 pm
2.65 01/15/2019 01:59:28 Jan 14 08:59 pm Jan 14 5:59 pm
2.66 01/15/2019 00:59:44 Jan 14 07:59 pm Jan 14 4:59 pm
2.66 01/15/2019 00:00:00 Jan 14 07:00 pm Jan 14 4:00 pm
2.66 01/14/2019 22:58:08 Jan 14 05:58 pm Jan 14 2:58 pm
2.67 01/14/2019 21:58:24 Jan 14 04:58 pm Jan 14 1:58 pm
2.67 01/14/2019 20:58:40 Jan 14 03:58 pm Jan 14 12:58 pm
2.68 01/14/2019 19:58:56 Jan 14 02:58 pm Jan 14 11:58 am
2.69 01/14/2019 18:59:12 Jan 14 01:59 pm Jan 14 10:59 am
2.68 01/14/2019 17:59:28 Jan 14 12:59 pm Jan 14 9:59 am
2.69 01/14/2019 16:00:00 Jan 14 11:00 am Jan 14 8:00 am
2.71 01/14/2019 14:58:08 Jan 14 09:58 am Jan 14 6:58 am
2.71 01/14/2019 13:58:24 Jan 14 08:58 am Jan 14 5:58 am
2.71 01/14/2019 12:58:40 Jan 14 07:58 am Jan 14 4:58 am
2.71 01/14/2019 11:58:56 Jan 14 06:58 am Jan 14 3:58 am
2.72 01/14/2019 10:59:12 Jan 14 05:59 am Jan 14 2:59 am
2.73 01/14/2019 09:59:28 Jan 14 04:59 am Jan 14 1:59 am
2.72 01/14/2019 08:59:44 Jan 14 03:59 am Jan 14 12:59 am
2.74 01/14/2019 08:00:00 Jan 14 03:00 am Jan 14 12:00 am
2.74 01/14/2019 06:58:08 Jan 14 01:58 am Jan 13 10:58 pm
2.75 01/14/2019 05:58:24 Jan 14 12:58 am Jan 13 9:58 pm
2.97 01/14/2019 04:58:40 Jan 13 11:58 pm Jan 13 8:58 pm
2.77 01/14/2019 03:58:56 Jan 13 10:58 pm Jan 13 7:58 pm
2.79 01/14/2019 02:59:12 Jan 13 09:59 pm Jan 13 6:59 pm
2.78 01/14/2019 01:59:28 Jan 13 08:59 pm Jan 13 5:59 pm
2.81 01/14/2019 00:59:44 Jan 13 07:59 pm Jan 13 4:59 pm
2.80 01/14/2019 00:00:00 Jan 13 07:00 pm Jan 13 4:00 pm
2.82 01/13/2019 22:58:08 Jan 13 05:58 pm Jan 13 2:58 pm
2.85 01/13/2019 21:58:24 Jan 13 04:58 pm Jan 13 1:58 pm
2.85 01/13/2019 20:58:40 Jan 13 03:58 pm Jan 13 12:58 pm
2.88 01/13/2019 19:58:56 Jan 13 02:58 pm Jan 13 11:58 am
2.90 01/13/2019 18:59:12 Jan 13 01:59 pm Jan 13 10:59 am
2.93 01/13/2019 17:59:28 Jan 13 12:59 pm Jan 13 9:59 am
3.02 01/13/2019 16:00:00 Jan 13 11:00 am Jan 13 8:00 am
3.08 01/13/2019 14:58:08 Jan 13 09:58 am Jan 13 6:58 am
3.13 01/13/2019 13:58:24 Jan 13 08:58 am Jan 13 5:58 am
3.19 01/13/2019 12:58:40 Jan 13 07:58 am Jan 13 4:58 am
3.25 01/13/2019 11:58:56 Jan 13 06:58 am Jan 13 3:58 am
3.27 01/13/2019 10:59:12 Jan 13 05:59 am Jan 13 2:59 am
3.25 01/13/2019 09:59:28 Jan 13 04:59 am Jan 13 1:59 am
3.22 01/13/2019 08:59:44 Jan 13 03:59 am Jan 13 12:59 am
3.19 01/13/2019 08:00:00 Jan 13 03:00 am Jan 13 12:00 am
3.13 01/13/2019 06:58:08 Jan 13 01:58 am Jan 12 10:58 pm
3.05 01/13/2019 05:58:24 Jan 13 12:58 am Jan 12 9:58 pm
2.59 01/13/2019 04:58:40 Jan 12 11:58 pm Jan 12 8:58 pm
2.83 01/13/2019 03:58:56 Jan 12 10:58 pm Jan 12 7:58 pm
2.74 01/13/2019 02:59:12 Jan 12 09:59 pm Jan 12 6:59 pm
2.67 01/13/2019 01:59:28 Jan 12 08:59 pm Jan 12 5:59 pm
2.62 01/13/2019 00:59:44 Jan 12 07:59 pm Jan 12 4:59 pm
2.61 01/13/2019 00:00:00 Jan 12 07:00 pm Jan 12 4:00 pm
2.59 01/12/2019 22:58:08 Jan 12 05:58 pm Jan 12 2:58 pm
2.59 01/12/2019 21:58:24 Jan 12 04:58 pm Jan 12 1:58 pm
2.58 01/12/2019 20:58:40 Jan 12 03:58 pm Jan 12 12:58 pm
2.58 01/12/2019 19:58:56 Jan 12 02:58 pm Jan 12 11:58 am
2.58 01/12/2019 18:59:12 Jan 12 01:59 pm Jan 12 10:59 am
2.58 01/12/2019 17:59:28 Jan 12 12:59 pm Jan 12 9:59 am
2.59 01/12/2019 16:00:00 Jan 12 11:00 am Jan 12 8:00 am
2.59 01/12/2019 14:58:08 Jan 12 09:58 am Jan 12 6:58 am
2.59 01/12/2019 13:58:24 Jan 12 08:58 am Jan 12 5:58 am
2.59 01/12/2019 12:58:40 Jan 12 07:58 am Jan 12 4:58 am
2.60 01/12/2019 11:58:56 Jan 12 06:58 am Jan 12 3:58 am
2.61 01/12/2019 10:59:12 Jan 12 05:59 am Jan 12 2:59 am
2.61 01/12/2019 09:59:28 Jan 12 04:59 am Jan 12 1:59 am
2.60 01/12/2019 08:59:44 Jan 12 03:59 am Jan 12 12:59 am
2.61 01/12/2019 08:00:00 Jan 12 03:00 am Jan 12 12:00 am
2.62 01/12/2019 06:58:08 Jan 12 01:58 am Jan 11 10:58 pm
2.62 01/12/2019 05:58:24 Jan 12 12:58 am Jan 11 9:58 pm
2.64 01/12/2019 04:58:40 Jan 11 11:58 pm Jan 11 8:58 pm
2.61 01/12/2019 03:58:56 Jan 11 10:58 pm Jan 11 7:58 pm
2.63 01/12/2019 02:59:12 Jan 11 09:59 pm Jan 11 6:59 pm
2.63 01/12/2019 01:59:28 Jan 11 08:59 pm Jan 11 5:59 pm
2.62 01/12/2019 00:59:44 Jan 11 07:59 pm Jan 11 4:59 pm
2.63 01/12/2019 00:00:00 Jan 11 07:00 pm Jan 11 4:00 pm
2.64 01/11/2019 22:58:08 Jan 11 05:58 pm Jan 11 2:58 pm
2.64 01/11/2019 21:58:24 Jan 11 04:58 pm Jan 11 1:58 pm
2.63 01/11/2019 20:58:40 Jan 11 03:58 pm Jan 11 12:58 pm
2.64 01/11/2019 19:58:56 Jan 11 02:58 pm Jan 11 11:58 am
2.64 01/11/2019 18:59:12 Jan 11 01:59 pm Jan 11 10:59 am
2.63 01/11/2019 17:59:28 Jan 11 12:59 pm Jan 11 9:59 am
2.64 01/11/2019 16:00:00 Jan 11 11:00 am Jan 11 8:00 am
2.65 01/11/2019 14:58:08 Jan 11 09:58 am Jan 11 6:58 am
2.65 01/11/2019 13:58:24 Jan 11 08:58 am Jan 11 5:58 am
2.66 01/11/2019 12:58:40 Jan 11 07:58 am Jan 11 4:58 am
2.66 01/11/2019 11:58:56 Jan 11 06:58 am Jan 11 3:58 am
2.66 01/11/2019 10:59:12 Jan 11 05:59 am Jan 11 2:59 am
2.66 01/11/2019 09:59:28 Jan 11 04:59 am Jan 11 1:59 am
2.67 01/11/2019 08:59:44 Jan 11 03:59 am Jan 11 12:59 am
2.67 01/11/2019 08:00:00 Jan 11 03:00 am Jan 11 12:00 am
2.68 01/11/2019 06:58:08 Jan 11 01:58 am Jan 10 10:58 pm
2.67 01/11/2019 05:58:24 Jan 11 12:58 am Jan 10 9:58 pm
2.70 01/11/2019 04:58:40 Jan 10 11:58 pm Jan 10 8:58 pm
2.67 01/11/2019 03:58:56 Jan 10 10:58 pm Jan 10 7:58 pm
2.68 01/11/2019 02:59:12 Jan 10 09:59 pm Jan 10 6:59 pm
2.68 01/11/2019 01:59:28 Jan 10 08:59 pm Jan 10 5:59 pm
2.69 01/11/2019 00:59:44 Jan 10 07:59 pm Jan 10 4:59 pm
2.69 01/11/2019 00:00:00 Jan 10 07:00 pm Jan 10 4:00 pm
2.68 01/10/2019 22:58:08 Jan 10 05:58 pm Jan 10 2:58 pm
2.69 01/10/2019 21:58:24 Jan 10 04:58 pm Jan 10 1:58 pm
2.69 01/10/2019 20:58:40 Jan 10 03:58 pm Jan 10 12:58 pm
2.70 01/10/2019 19:58:56 Jan 10 02:58 pm Jan 10 11:58 am
2.69 01/10/2019 18:59:12 Jan 10 01:59 pm Jan 10 10:59 am
2.70 01/10/2019 16:00:00 Jan 10 11:00 am Jan 10 8:00 am
2.72 01/10/2019 14:58:08 Jan 10 09:58 am Jan 10 6:58 am
2.71 01/10/2019 13:58:24 Jan 10 08:58 am Jan 10 5:58 am
2.71 01/10/2019 12:58:40 Jan 10 07:58 am Jan 10 4:58 am
2.72 01/10/2019 11:58:56 Jan 10 06:58 am Jan 10 3:58 am
2.73 01/10/2019 10:59:12 Jan 10 05:59 am Jan 10 2:59 am
2.73 01/10/2019 09:59:28 Jan 10 04:59 am Jan 10 1:59 am
2.73 01/10/2019 08:59:44 Jan 10 03:59 am Jan 10 12:59 am
2.73 01/10/2019 08:00:00 Jan 10 03:00 am Jan 10 12:00 am
2.73 01/10/2019 06:58:08 Jan 10 01:58 am Jan 9 10:58 pm
2.74 01/10/2019 05:58:24 Jan 10 12:58 am Jan 9 9:58 pm
2.77 01/10/2019 04:58:40 Jan 9 11:58 pm Jan 9 8:58 pm
2.74 01/10/2019 03:58:56 Jan 9 10:58 pm Jan 9 7:58 pm
2.75 01/10/2019 02:59:12 Jan 9 09:59 pm Jan 9 6:59 pm
2.75 01/10/2019 01:59:28 Jan 9 08:59 pm Jan 9 5:59 pm
2.74 01/10/2019 00:59:44 Jan 9 07:59 pm Jan 9 4:59 pm
2.75 01/10/2019 00:00:00 Jan 9 07:00 pm Jan 9 4:00 pm
2.75 01/09/2019 22:58:08 Jan 9 05:58 pm Jan 9 2:58 pm
2.75 01/09/2019 21:58:24 Jan 9 04:58 pm Jan 9 1:58 pm
2.76 01/09/2019 20:58:40 Jan 9 03:58 pm Jan 9 12:58 pm
2.77 01/09/2019 19:58:56 Jan 9 02:58 pm Jan 9 11:58 am
2.77 01/09/2019 18:59:12 Jan 9 01:59 pm Jan 9 10:59 am
2.77 01/09/2019 17:59:28 Jan 9 12:59 pm Jan 9 9:59 am
2.78 01/09/2019 16:00:00 Jan 9 11:00 am Jan 9 8:00 am
2.79 01/09/2019 14:58:08 Jan 9 09:58 am Jan 9 6:58 am
2.80 01/09/2019 13:58:24 Jan 9 08:58 am Jan 9 5:58 am
2.79 01/09/2019 12:58:40 Jan 9 07:58 am Jan 9 4:58 am
2.79 01/09/2019 11:58:56 Jan 9 06:58 am Jan 9 3:58 am
2.82 01/09/2019 09:59:28 Jan 9 04:59 am Jan 9 1:59 am
2.82 01/09/2019 08:59:44 Jan 9 03:59 am Jan 9 12:59 am
2.82 01/09/2019 08:00:00 Jan 9 03:00 am Jan 9 12:00 am
2.82 01/09/2019 06:58:08 Jan 9 01:58 am Jan 8 10:58 pm
2.83 01/09/2019 05:58:24 Jan 9 12:58 am Jan 8 9:58 pm
2.86 01/09/2019 04:58:40 Jan 8 11:58 pm Jan 8 8:58 pm
2.83 01/09/2019 03:58:56 Jan 8 10:58 pm Jan 8 7:58 pm
2.84 01/09/2019 02:59:12 Jan 8 09:59 pm Jan 8 6:59 pm
2.85 01/09/2019 01:59:28 Jan 8 08:59 pm Jan 8 5:59 pm
2.84 01/09/2019 00:59:44 Jan 8 07:59 pm Jan 8 4:59 pm
2.85 01/09/2019 00:00:00 Jan 8 07:00 pm Jan 8 4:00 pm
2.84 01/08/2019 22:58:08 Jan 8 05:58 pm Jan 8 2:58 pm
2.86 01/08/2019 21:58:24 Jan 8 04:58 pm Jan 8 1:58 pm
2.85 01/08/2019 20:58:40 Jan 8 03:58 pm Jan 8 12:58 pm
2.86 01/08/2019 19:58:56 Jan 8 02:58 pm Jan 8 11:58 am
2.87 01/08/2019 18:59:12 Jan 8 01:59 pm Jan 8 10:59 am
2.86 01/08/2019 17:59:28 Jan 8 12:59 pm Jan 8 9:59 am
2.88 01/08/2019 16:00:00 Jan 8 11:00 am Jan 8 8:00 am
2.87 01/08/2019 14:58:08 Jan 8 09:58 am Jan 8 6:58 am
2.88 01/08/2019 13:58:24 Jan 8 08:58 am Jan 8 5:58 am
2.87 01/08/2019 12:58:40 Jan 8 07:58 am Jan 8 4:58 am
2.89 01/08/2019 11:58:56 Jan 8 06:58 am Jan 8 3:58 am
2.88 01/08/2019 10:59:12 Jan 8 05:59 am Jan 8 2:59 am
2.88 01/08/2019 08:59:44 Jan 8 03:59 am Jan 8 12:59 am
2.88 01/08/2019 08:00:00 Jan 8 03:00 am Jan 8 12:00 am
2.89 01/08/2019 06:58:08 Jan 8 01:58 am Jan 7 10:58 pm
2.89 01/08/2019 05:58:24 Jan 8 12:58 am Jan 7 9:58 pm
2.95 01/08/2019 04:58:40 Jan 7 11:58 pm Jan 7 8:58 pm
2.90 01/08/2019 03:58:56 Jan 7 10:58 pm Jan 7 7:58 pm
2.90 01/08/2019 02:59:12 Jan 7 09:59 pm Jan 7 6:59 pm
2.90 01/08/2019 01:59:28 Jan 7 08:59 pm Jan 7 5:59 pm
2.91 01/08/2019 00:59:44 Jan 7 07:59 pm Jan 7 4:59 pm
2.92 01/08/2019 00:00:00 Jan 7 07:00 pm Jan 7 4:00 pm
2.92 01/07/2019 22:58:08 Jan 7 05:58 pm Jan 7 2:58 pm
2.92 01/07/2019 21:58:24 Jan 7 04:58 pm Jan 7 1:58 pm
2.92 01/07/2019 20:58:40 Jan 7 03:58 pm Jan 7 12:58 pm
2.93 01/07/2019 19:58:56 Jan 7 02:58 pm Jan 7 11:58 am
2.94 01/07/2019 18:59:12 Jan 7 01:59 pm Jan 7 10:59 am
2.94 01/07/2019 17:59:28 Jan 7 12:59 pm Jan 7 9:59 am
2.94 01/07/2019 16:00:00 Jan 7 11:00 am Jan 7 8:00 am
2.95 01/07/2019 14:58:08 Jan 7 09:58 am Jan 7 6:58 am
2.96 01/07/2019 13:58:24 Jan 7 08:58 am Jan 7 5:58 am
2.97 01/07/2019 12:58:40 Jan 7 07:58 am Jan 7 4:58 am
2.99 01/07/2019 08:00:00 Jan 7 03:00 am Jan 7 12:00 am
2.99 01/07/2019 06:58:08 Jan 7 01:58 am Jan 6 10:58 pm
3.00 01/07/2019 05:58:24 Jan 7 12:58 am Jan 6 9:58 pm
3.07 01/07/2019 04:58:40 Jan 6 11:58 pm Jan 6 8:58 pm
3.01 01/07/2019 03:58:56 Jan 6 10:58 pm Jan 6 7:58 pm
3.00 01/07/2019 02:59:12 Jan 6 09:59 pm Jan 6 6:59 pm
3.02 01/07/2019 01:59:28 Jan 6 08:59 pm Jan 6 5:59 pm
3.02 01/07/2019 00:59:44 Jan 6 07:59 pm Jan 6 4:59 pm
3.03 01/07/2019 00:00:00 Jan 6 07:00 pm Jan 6 4:00 pm
3.04 01/06/2019 22:58:08 Jan 6 05:58 pm Jan 6 2:58 pm
3.04 01/06/2019 21:58:24 Jan 6 04:58 pm Jan 6 1:58 pm
3.06 01/06/2019 20:58:40 Jan 6 03:58 pm Jan 6 12:58 pm
3.06 01/06/2019 19:58:56 Jan 6 02:58 pm Jan 6 11:58 am
3.05 01/06/2019 18:59:12 Jan 6 01:59 pm Jan 6 10:59 am
3.07 01/06/2019 17:59:28 Jan 6 12:59 pm Jan 6 9:59 am
3.07 01/06/2019 16:00:00 Jan 6 11:00 am Jan 6 8:00 am
3.08 01/06/2019 14:58:08 Jan 6 09:58 am Jan 6 6:58 am
3.08 01/06/2019 13:58:24 Jan 6 08:58 am Jan 6 5:58 am
3.10 01/06/2019 12:58:40 Jan 6 07:58 am Jan 6 4:58 am
3.10 01/06/2019 11:58:56 Jan 6 06:58 am Jan 6 3:58 am
3.12 01/06/2019 10:59:12 Jan 6 05:59 am Jan 6 2:59 am
3.12 01/06/2019 09:59:28 Jan 6 04:59 am Jan 6 1:59 am
3.13 01/06/2019 08:59:44 Jan 6 03:59 am Jan 6 12:59 am
3.13 01/06/2019 08:00:00 Jan 6 03:00 am Jan 6 12:00 am
3.14 01/06/2019 06:58:08 Jan 6 01:58 am Jan 5 10:58 pm
3.16 01/06/2019 05:58:24 Jan 6 12:58 am Jan 5 9:58 pm
3.29 01/06/2019 04:58:40 Jan 5 11:58 pm Jan 5 8:58 pm
3.18 01/06/2019 03:58:56 Jan 5 10:58 pm Jan 5 7:58 pm
3.19 01/06/2019 02:59:12 Jan 5 09:59 pm Jan 5 6:59 pm
3.19 01/06/2019 01:59:28 Jan 5 08:59 pm Jan 5 5:59 pm
3.22 01/06/2019 00:59:44 Jan 5 07:59 pm Jan 5 4:59 pm
3.21 01/06/2019 00:00:00 Jan 5 07:00 pm Jan 5 4:00 pm
3.22 01/05/2019 22:58:08 Jan 5 05:58 pm Jan 5 2:58 pm
3.23 01/05/2019 21:58:24 Jan 5 04:58 pm Jan 5 1:58 pm
3.23 01/05/2019 20:58:40 Jan 5 03:58 pm Jan 5 12:58 pm
3.24 01/05/2019 19:58:56 Jan 5 02:58 pm Jan 5 11:58 am
3.25 01/05/2019 18:59:12 Jan 5 01:59 pm Jan 5 10:59 am
3.27 01/05/2019 17:59:28 Jan 5 12:59 pm Jan 5 9:59 am
3.31 01/05/2019 16:00:00 Jan 5 11:00 am Jan 5 8:00 am
3.29 01/05/2019 14:58:08 Jan 5 09:58 am Jan 5 6:58 am
3.31 01/05/2019 13:58:24 Jan 5 08:58 am Jan 5 5:58 am
3.33 01/05/2019 12:58:40 Jan 5 07:58 am Jan 5 4:58 am
3.33 01/05/2019 11:58:56 Jan 5 06:58 am Jan 5 3:58 am
3.35 01/05/2019 10:59:12 Jan 5 05:59 am Jan 5 2:59 am
3.36 01/05/2019 09:59:28 Jan 5 04:59 am Jan 5 1:59 am
3.40 01/05/2019 08:59:44 Jan 5 03:59 am Jan 5 12:59 am
3.40 01/05/2019 08:00:00 Jan 5 03:00 am Jan 5 12:00 am
3.42 01/05/2019 06:58:08 Jan 5 01:58 am Jan 4 10:58 pm
3.43 01/05/2019 05:58:24 Jan 5 12:58 am Jan 4 9:58 pm
3.46 01/05/2019 04:58:40 Jan 4 11:58 pm Jan 4 8:58 pm
3.46 01/05/2019 02:59:12 Jan 4 09:59 pm Jan 4 6:59 pm
3.44 01/05/2019 01:59:28 Jan 4 08:59 pm Jan 4 5:59 pm
3.42 01/05/2019 00:59:44 Jan 4 07:59 pm Jan 4 4:59 pm
3.42 01/05/2019 00:00:00 Jan 4 07:00 pm Jan 4 4:00 pm
3.40 01/04/2019 22:58:08 Jan 4 05:58 pm Jan 4 2:58 pm
3.44 01/04/2019 21:58:24 Jan 4 04:58 pm Jan 4 1:58 pm
3.44 01/04/2019 20:58:40 Jan 4 03:58 pm Jan 4 12:58 pm
3.47 01/04/2019 19:58:56 Jan 4 02:58 pm Jan 4 11:58 am
3.47 01/04/2019 18:59:12 Jan 4 01:59 pm Jan 4 10:59 am
3.48 01/04/2019 17:59:28 Jan 4 12:59 pm Jan 4 9:59 am
3.44 01/04/2019 16:00:00 Jan 4 11:00 am Jan 4 8:00 am
3.41 01/04/2019 14:58:08 Jan 4 09:58 am Jan 4 6:58 am
3.38 01/04/2019 13:58:24 Jan 4 08:58 am Jan 4 5:58 am
3.34 01/04/2019 12:58:40 Jan 4 07:58 am Jan 4 4:58 am
3.28 01/04/2019 11:58:56 Jan 4 06:58 am Jan 4 3:58 am
3.24 01/04/2019 10:59:12 Jan 4 05:59 am Jan 4 2:59 am
3.21 01/04/2019 09:59:28 Jan 4 04:59 am Jan 4 1:59 am
3.21 01/04/2019 08:59:44 Jan 4 03:59 am Jan 4 12:59 am
3.19 01/04/2019 08:00:00 Jan 4 03:00 am Jan 4 12:00 am
3.20 01/04/2019 06:58:08 Jan 4 01:58 am Jan 3 10:58 pm
3.19 01/04/2019 05:58:24 Jan 4 12:58 am Jan 3 9:58 pm
3.20 01/04/2019 04:58:40 Jan 3 11:58 pm Jan 3 8:58 pm
3.20 01/04/2019 02:59:12 Jan 3 09:59 pm Jan 3 6:59 pm
3.22 01/04/2019 01:59:28 Jan 3 08:59 pm Jan 3 5:59 pm
3.24 01/04/2019 00:59:44 Jan 3 07:59 pm Jan 3 4:59 pm
3.25 01/04/2019 00:00:00 Jan 3 07:00 pm Jan 3 4:00 pm
3.27 01/03/2019 22:58:08 Jan 3 05:58 pm Jan 3 2:58 pm
3.27 01/03/2019 21:58:24 Jan 3 04:58 pm Jan 3 1:58 pm
3.15 01/03/2019 17:59:28 Jan 3 12:59 pm Jan 3 9:59 am
-999.00 01/03/2019 16:00:00 Jan 3 11:00 am Jan 3 8:00 am
-999.00 01/03/2019 14:58:08 Jan 3 09:58 am Jan 3 6:58 am
-999.00 01/03/2019 13:58:24 Jan 3 08:58 am Jan 3 5:58 am
-999.00 01/03/2019 12:58:40 Jan 3 07:58 am Jan 3 4:58 am
-999.00 01/03/2019 11:58:56 Jan 3 06:58 am Jan 3 3:58 am
-999.00 01/03/2019 10:59:12 Jan 3 05:59 am Jan 3 2:59 am
-999.00 01/03/2019 09:59:28 Jan 3 04:59 am Jan 3 1:59 am
-999.00 01/03/2019 02:59:12 Jan 2 09:59 pm Jan 2 6:59 pm
3.16 01/02/2019 05:58:24 Jan 2 12:58 am Jan 1 9:58 pm
3.25 01/02/2019 04:58:40 Jan 1 11:58 pm Jan 1 8:58 pm
3.16 01/02/2019 00:00:00 Jan 1 07:00 pm Jan 1 4:00 pm
3.16 01/01/2019 21:58:24 Jan 1 04:58 pm Jan 1 1:58 pm
3.16 01/01/2019 20:58:40 Jan 1 03:58 pm Jan 1 12:58 pm
3.17 01/01/2019 19:58:56 Jan 1 02:58 pm Jan 1 11:58 am
3.20 01/01/2019 18:59:12 Jan 1 01:59 pm Jan 1 10:59 am
3.21 01/01/2019 17:59:28 Jan 1 12:59 pm Jan 1 9:59 am
3.25 01/01/2019 16:00:00 Jan 1 11:00 am Jan 1 8:00 am
3.29 01/01/2019 14:58:08 Jan 1 09:58 am Jan 1 6:58 am
3.30 01/01/2019 13:58:24 Jan 1 08:58 am Jan 1 5:58 am
3.34 01/01/2019 12:58:40 Jan 1 07:58 am Jan 1 4:58 am
3.35 01/01/2019 11:58:56 Jan 1 06:58 am Jan 1 3:58 am
3.34 01/01/2019 10:59:12 Jan 1 05:59 am Jan 1 2:59 am
3.29 01/01/2019 08:59:44 Jan 1 03:59 am Jan 1 12:59 am
3.25 01/01/2019 08:00:00 Jan 1 03:00 am Jan 1 12:00 am
3.24 01/01/2019 06:58:08 Jan 1 01:58 am Dec 31 10:58 pm
3.22 01/01/2019 05:58:24 Jan 1 12:58 am Dec 31 9:58 pm
3.16 01/01/2019 04:58:40 Dec 31 11:58 pm Dec 31 8:58 pm
3.17 01/01/2019 03:58:56 Dec 31 10:58 pm Dec 31 7:58 pm
3.14 01/01/2019 02:59:12 Dec 31 09:59 pm Dec 31 6:59 pm
3.15 01/01/2019 01:59:28 Dec 31 08:59 pm Dec 31 5:59 pm

Flow

Gauge History

Times listed in GMT 24h, ET and PT hours provided for convenience Graphs in GMT. Readings of "n/a" constitute a frozen gauge or gauge error.
Reading Updated (GMT) Eastern Pacific Comment
808.00 01/16/2019 04:58:40 Jan 15 11:58 pm Jan 15 8:58 pm
808.00 01/15/2019 21:58:24 Jan 15 04:58 pm Jan 15 1:58 pm
802.00 01/15/2019 20:58:40 Jan 15 03:58 pm Jan 15 12:58 pm
808.00 01/15/2019 19:58:56 Jan 15 02:58 pm Jan 15 11:58 am
808.00 01/15/2019 18:59:12 Jan 15 01:59 pm Jan 15 10:59 am
814.00 01/15/2019 17:59:28 Jan 15 12:59 pm Jan 15 9:59 am
808.00 01/15/2019 16:00:00 Jan 15 11:00 am Jan 15 8:00 am
820.00 01/15/2019 14:58:08 Jan 15 09:58 am Jan 15 6:58 am
814.00 01/15/2019 13:58:24 Jan 15 08:58 am Jan 15 5:58 am
814.00 01/15/2019 12:58:40 Jan 15 07:58 am Jan 15 4:58 am
825.00 01/15/2019 11:58:56 Jan 15 06:58 am Jan 15 3:58 am
825.00 01/15/2019 10:59:12 Jan 15 05:59 am Jan 15 2:59 am
820.00 01/15/2019 09:59:28 Jan 15 04:59 am Jan 15 1:59 am
820.00 01/15/2019 08:59:44 Jan 15 03:59 am Jan 15 12:59 am
825.00 01/15/2019 08:00:00 Jan 15 03:00 am Jan 15 12:00 am
825.00 01/15/2019 06:58:08 Jan 15 01:58 am Jan 14 10:58 pm
837.00 01/15/2019 05:58:24 Jan 15 12:58 am Jan 14 9:58 pm
867.00 01/15/2019 04:58:40 Jan 14 11:58 pm Jan 14 8:58 pm
837.00 01/15/2019 03:58:56 Jan 14 10:58 pm Jan 14 7:58 pm
831.00 01/15/2019 02:59:12 Jan 14 09:59 pm Jan 14 6:59 pm
837.00 01/15/2019 01:59:28 Jan 14 08:59 pm Jan 14 5:59 pm
843.00 01/15/2019 00:59:44 Jan 14 07:59 pm Jan 14 4:59 pm
843.00 01/15/2019 00:00:00 Jan 14 07:00 pm Jan 14 4:00 pm
843.00 01/14/2019 22:58:08 Jan 14 05:58 pm Jan 14 2:58 pm
849.00 01/14/2019 21:58:24 Jan 14 04:58 pm Jan 14 1:58 pm
849.00 01/14/2019 20:58:40 Jan 14 03:58 pm Jan 14 12:58 pm
855.00 01/14/2019 19:58:56 Jan 14 02:58 pm Jan 14 11:58 am
861.00 01/14/2019 18:59:12 Jan 14 01:59 pm Jan 14 10:59 am
855.00 01/14/2019 17:59:28 Jan 14 12:59 pm Jan 14 9:59 am
861.00 01/14/2019 16:00:00 Jan 14 11:00 am Jan 14 8:00 am
873.00 01/14/2019 14:58:08 Jan 14 09:58 am Jan 14 6:58 am
873.00 01/14/2019 13:58:24 Jan 14 08:58 am Jan 14 5:58 am
873.00 01/14/2019 12:58:40 Jan 14 07:58 am Jan 14 4:58 am
873.00 01/14/2019 11:58:56 Jan 14 06:58 am Jan 14 3:58 am
879.00 01/14/2019 10:59:12 Jan 14 05:59 am Jan 14 2:59 am
885.00 01/14/2019 09:59:28 Jan 14 04:59 am Jan 14 1:59 am
879.00 01/14/2019 08:59:44 Jan 14 03:59 am Jan 14 12:59 am
891.00 01/14/2019 08:00:00 Jan 14 03:00 am Jan 14 12:00 am
891.00 01/14/2019 06:58:08 Jan 14 01:58 am Jan 13 10:58 pm
897.00 01/14/2019 05:58:24 Jan 14 12:58 am Jan 13 9:58 pm
1027.00 01/14/2019 04:58:40 Jan 13 11:58 pm Jan 13 8:58 pm
909.00 01/14/2019 03:58:56 Jan 13 10:58 pm Jan 13 7:58 pm
920.00 01/14/2019 02:59:12 Jan 13 09:59 pm Jan 13 6:59 pm
914.00 01/14/2019 01:59:28 Jan 13 08:59 pm Jan 13 5:59 pm
932.00 01/14/2019 00:59:44 Jan 13 07:59 pm Jan 13 4:59 pm
926.00 01/14/2019 00:00:00 Jan 13 07:00 pm Jan 13 4:00 pm
938.00 01/13/2019 22:58:08 Jan 13 05:58 pm Jan 13 2:58 pm
956.00 01/13/2019 21:58:24 Jan 13 04:58 pm Jan 13 1:58 pm
956.00 01/13/2019 20:58:40 Jan 13 03:58 pm Jan 13 12:58 pm
974.00 01/13/2019 19:58:56 Jan 13 02:58 pm Jan 13 11:58 am
986.00 01/13/2019 18:59:12 Jan 13 01:59 pm Jan 13 10:59 am
1003.00 01/13/2019 17:59:28 Jan 13 12:59 pm Jan 13 9:59 am
1059.00 01/13/2019 16:00:00 Jan 13 11:00 am Jan 13 8:00 am
1101.00 01/13/2019 14:58:08 Jan 13 09:58 am Jan 13 6:58 am
1137.00 01/13/2019 13:58:24 Jan 13 08:58 am Jan 13 5:58 am
1179.00 01/13/2019 12:58:40 Jan 13 07:58 am Jan 13 4:58 am
1221.00 01/13/2019 11:58:56 Jan 13 06:58 am Jan 13 3:58 am
1235.00 01/13/2019 10:59:12 Jan 13 05:59 am Jan 13 2:59 am
1221.00 01/13/2019 09:59:28 Jan 13 04:59 am Jan 13 1:59 am
1200.00 01/13/2019 08:59:44 Jan 13 03:59 am Jan 13 12:59 am
1179.00 01/13/2019 08:00:00 Jan 13 03:00 am Jan 13 12:00 am
1137.00 01/13/2019 06:58:08 Jan 13 01:58 am Jan 12 10:58 pm
1080.00 01/13/2019 05:58:24 Jan 13 12:58 am Jan 12 9:58 pm
802.00 01/13/2019 04:58:40 Jan 12 11:58 pm Jan 12 8:58 pm
944.00 01/13/2019 03:58:56 Jan 12 10:58 pm Jan 12 7:58 pm
891.00 01/13/2019 02:59:12 Jan 12 09:59 pm Jan 12 6:59 pm
849.00 01/13/2019 01:59:28 Jan 12 08:59 pm Jan 12 5:59 pm
820.00 01/13/2019 00:59:44 Jan 12 07:59 pm Jan 12 4:59 pm
814.00 01/13/2019 00:00:00 Jan 12 07:00 pm Jan 12 4:00 pm
802.00 01/12/2019 22:58:08 Jan 12 05:58 pm Jan 12 2:58 pm
802.00 01/12/2019 21:58:24 Jan 12 04:58 pm Jan 12 1:58 pm
796.00 01/12/2019 20:58:40 Jan 12 03:58 pm Jan 12 12:58 pm
796.00 01/12/2019 19:58:56 Jan 12 02:58 pm Jan 12 11:58 am
796.00 01/12/2019 18:59:12 Jan 12 01:59 pm Jan 12 10:59 am
796.00 01/12/2019 17:59:28 Jan 12 12:59 pm Jan 12 9:59 am
802.00 01/12/2019 16:00:00 Jan 12 11:00 am Jan 12 8:00 am
802.00 01/12/2019 14:58:08 Jan 12 09:58 am Jan 12 6:58 am
802.00 01/12/2019 13:58:24 Jan 12 08:58 am Jan 12 5:58 am
802.00 01/12/2019 12:58:40 Jan 12 07:58 am Jan 12 4:58 am
808.00 01/12/2019 11:58:56 Jan 12 06:58 am Jan 12 3:58 am
814.00 01/12/2019 10:59:12 Jan 12 05:59 am Jan 12 2:59 am
814.00 01/12/2019 09:59:28 Jan 12 04:59 am Jan 12 1:59 am
808.00 01/12/2019 08:59:44 Jan 12 03:59 am Jan 12 12:59 am
814.00 01/12/2019 08:00:00 Jan 12 03:00 am Jan 12 12:00 am
820.00 01/12/2019 06:58:08 Jan 12 01:58 am Jan 11 10:58 pm
820.00 01/12/2019 05:58:24 Jan 12 12:58 am Jan 11 9:58 pm
831.00 01/12/2019 04:58:40 Jan 11 11:58 pm Jan 11 8:58 pm
814.00 01/12/2019 03:58:56 Jan 11 10:58 pm Jan 11 7:58 pm
825.00 01/12/2019 02:59:12 Jan 11 09:59 pm Jan 11 6:59 pm
825.00 01/12/2019 01:59:28 Jan 11 08:59 pm Jan 11 5:59 pm
820.00 01/12/2019 00:59:44 Jan 11 07:59 pm Jan 11 4:59 pm
825.00 01/12/2019 00:00:00 Jan 11 07:00 pm Jan 11 4:00 pm
831.00 01/11/2019 22:58:08 Jan 11 05:58 pm Jan 11 2:58 pm
831.00 01/11/2019 21:58:24 Jan 11 04:58 pm Jan 11 1:58 pm
825.00 01/11/2019 20:58:40 Jan 11 03:58 pm Jan 11 12:58 pm
831.00 01/11/2019 19:58:56 Jan 11 02:58 pm Jan 11 11:58 am
831.00 01/11/2019 18:59:12 Jan 11 01:59 pm Jan 11 10:59 am
825.00 01/11/2019 17:59:28 Jan 11 12:59 pm Jan 11 9:59 am
831.00 01/11/2019 16:00:00 Jan 11 11:00 am Jan 11 8:00 am
837.00 01/11/2019 14:58:08 Jan 11 09:58 am Jan 11 6:58 am
837.00 01/11/2019 13:58:24 Jan 11 08:58 am Jan 11 5:58 am
843.00 01/11/2019 12:58:40 Jan 11 07:58 am Jan 11 4:58 am
843.00 01/11/2019 11:58:56 Jan 11 06:58 am Jan 11 3:58 am
843.00 01/11/2019 10:59:12 Jan 11 05:59 am Jan 11 2:59 am
843.00 01/11/2019 09:59:28 Jan 11 04:59 am Jan 11 1:59 am
849.00 01/11/2019 08:59:44 Jan 11 03:59 am Jan 11 12:59 am
849.00 01/11/2019 08:00:00 Jan 11 03:00 am Jan 11 12:00 am
855.00 01/11/2019 06:58:08 Jan 11 01:58 am Jan 10 10:58 pm
849.00 01/11/2019 05:58:24 Jan 11 12:58 am Jan 10 9:58 pm
867.00 01/11/2019 04:58:40 Jan 10 11:58 pm Jan 10 8:58 pm
849.00 01/11/2019 03:58:56 Jan 10 10:58 pm Jan 10 7:58 pm
855.00 01/11/2019 02:59:12 Jan 10 09:59 pm Jan 10 6:59 pm
855.00 01/11/2019 01:59:28 Jan 10 08:59 pm Jan 10 5:59 pm
861.00 01/11/2019 00:59:44 Jan 10 07:59 pm Jan 10 4:59 pm
861.00 01/11/2019 00:00:00 Jan 10 07:00 pm Jan 10 4:00 pm
855.00 01/10/2019 22:58:08 Jan 10 05:58 pm Jan 10 2:58 pm
861.00 01/10/2019 21:58:24 Jan 10 04:58 pm Jan 10 1:58 pm
861.00 01/10/2019 20:58:40 Jan 10 03:58 pm Jan 10 12:58 pm
867.00 01/10/2019 19:58:56 Jan 10 02:58 pm Jan 10 11:58 am
861.00 01/10/2019 18:59:12 Jan 10 01:59 pm Jan 10 10:59 am
867.00 01/10/2019 16:00:00 Jan 10 11:00 am Jan 10 8:00 am
879.00 01/10/2019 14:58:08 Jan 10 09:58 am Jan 10 6:58 am
873.00 01/10/2019 13:58:24 Jan 10 08:58 am Jan 10 5:58 am
873.00 01/10/2019 12:58:40 Jan 10 07:58 am Jan 10 4:58 am
879.00 01/10/2019 11:58:56 Jan 10 06:58 am Jan 10 3:58 am
885.00 01/10/2019 10:59:12 Jan 10 05:59 am Jan 10 2:59 am
885.00 01/10/2019 09:59:28 Jan 10 04:59 am Jan 10 1:59 am
885.00 01/10/2019 08:59:44 Jan 10 03:59 am Jan 10 12:59 am
885.00 01/10/2019 08:00:00 Jan 10 03:00 am Jan 10 12:00 am
885.00 01/10/2019 06:58:08 Jan 10 01:58 am Jan 9 10:58 pm
891.00 01/10/2019 05:58:24 Jan 10 12:58 am Jan 9 9:58 pm
909.00 01/10/2019 04:58:40 Jan 9 11:58 pm Jan 9 8:58 pm
891.00 01/10/2019 03:58:56 Jan 9 10:58 pm Jan 9 7:58 pm
897.00 01/10/2019 02:59:12 Jan 9 09:59 pm Jan 9 6:59 pm
897.00 01/10/2019 01:59:28 Jan 9 08:59 pm Jan 9 5:59 pm
891.00 01/10/2019 00:59:44 Jan 9 07:59 pm Jan 9 4:59 pm
897.00 01/10/2019 00:00:00 Jan 9 07:00 pm Jan 9 4:00 pm
897.00 01/09/2019 22:58:08 Jan 9 05:58 pm Jan 9 2:58 pm
897.00 01/09/2019 21:58:24 Jan 9 04:58 pm Jan 9 1:58 pm
903.00 01/09/2019 20:58:40 Jan 9 03:58 pm Jan 9 12:58 pm
909.00 01/09/2019 19:58:56 Jan 9 02:58 pm Jan 9 11:58 am
909.00 01/09/2019 18:59:12 Jan 9 01:59 pm Jan 9 10:59 am
909.00 01/09/2019 17:59:28 Jan 9 12:59 pm Jan 9 9:59 am
914.00 01/09/2019 16:00:00 Jan 9 11:00 am Jan 9 8:00 am
920.00 01/09/2019 14:58:08 Jan 9 09:58 am Jan 9 6:58 am
926.00 01/09/2019 13:58:24 Jan 9 08:58 am Jan 9 5:58 am
920.00 01/09/2019 12:58:40 Jan 9 07:58 am Jan 9 4:58 am
920.00 01/09/2019 11:58:56 Jan 9 06:58 am Jan 9 3:58 am
938.00 01/09/2019 09:59:28 Jan 9 04:59 am Jan 9 1:59 am
938.00 01/09/2019 08:59:44 Jan 9 03:59 am Jan 9 12:59 am
938.00 01/09/2019 08:00:00 Jan 9 03:00 am Jan 9 12:00 am
938.00 01/09/2019 06:58:08 Jan 9 01:58 am Jan 8 10:58 pm
944.00 01/09/2019 05:58:24 Jan 9 12:58 am Jan 8 9:58 pm
962.00 01/09/2019 04:58:40 Jan 8 11:58 pm Jan 8 8:58 pm
944.00 01/09/2019 03:58:56 Jan 8 10:58 pm Jan 8 7:58 pm
950.00 01/09/2019 02:59:12 Jan 8 09:59 pm Jan 8 6:59 pm
956.00 01/09/2019 01:59:28 Jan 8 08:59 pm Jan 8 5:59 pm
950.00 01/09/2019 00:59:44 Jan 8 07:59 pm Jan 8 4:59 pm
956.00 01/09/2019 00:00:00 Jan 8 07:00 pm Jan 8 4:00 pm
950.00 01/08/2019 22:58:08 Jan 8 05:58 pm Jan 8 2:58 pm
962.00 01/08/2019 21:58:24 Jan 8 04:58 pm Jan 8 1:58 pm
956.00 01/08/2019 20:58:40 Jan 8 03:58 pm Jan 8 12:58 pm
962.00 01/08/2019 19:58:56 Jan 8 02:58 pm Jan 8 11:58 am
968.00 01/08/2019 18:59:12 Jan 8 01:59 pm Jan 8 10:59 am
962.00 01/08/2019 17:59:28 Jan 8 12:59 pm Jan 8 9:59 am
974.00 01/08/2019 16:00:00 Jan 8 11:00 am Jan 8 8:00 am
968.00 01/08/2019 14:58:08 Jan 8 09:58 am Jan 8 6:58 am
974.00 01/08/2019 13:58:24 Jan 8 08:58 am Jan 8 5:58 am
968.00 01/08/2019 12:58:40 Jan 8 07:58 am Jan 8 4:58 am
980.00 01/08/2019 11:58:56 Jan 8 06:58 am Jan 8 3:58 am
974.00 01/08/2019 10:59:12 Jan 8 05:59 am Jan 8 2:59 am
974.00 01/08/2019 08:59:44 Jan 8 03:59 am Jan 8 12:59 am
974.00 01/08/2019 08:00:00 Jan 8 03:00 am Jan 8 12:00 am
980.00 01/08/2019 06:58:08 Jan 8 01:58 am Jan 7 10:58 pm
980.00 01/08/2019 05:58:24 Jan 8 12:58 am Jan 7 9:58 pm
1015.00 01/08/2019 04:58:40 Jan 7 11:58 pm Jan 7 8:58 pm
986.00 01/08/2019 03:58:56 Jan 7 10:58 pm Jan 7 7:58 pm
986.00 01/08/2019 02:59:12 Jan 7 09:59 pm Jan 7 6:59 pm
986.00 01/08/2019 01:59:28 Jan 7 08:59 pm Jan 7 5:59 pm
992.00 01/08/2019 00:59:44 Jan 7 07:59 pm Jan 7 4:59 pm
998.00 01/08/2019 00:00:00 Jan 7 07:00 pm Jan 7 4:00 pm
998.00 01/07/2019 22:58:08 Jan 7 05:58 pm Jan 7 2:58 pm
998.00 01/07/2019 21:58:24 Jan 7 04:58 pm Jan 7 1:58 pm
998.00 01/07/2019 20:58:40 Jan 7 03:58 pm Jan 7 12:58 pm
1003.00 01/07/2019 19:58:56 Jan 7 02:58 pm Jan 7 11:58 am
1009.00 01/07/2019 18:59:12 Jan 7 01:59 pm Jan 7 10:59 am
1009.00 01/07/2019 17:59:28 Jan 7 12:59 pm Jan 7 9:59 am
1009.00 01/07/2019 16:00:00 Jan 7 11:00 am Jan 7 8:00 am
1015.00 01/07/2019 14:58:08 Jan 7 09:58 am Jan 7 6:58 am
1021.00 01/07/2019 13:58:24 Jan 7 08:58 am Jan 7 5:58 am
1027.00 01/07/2019 12:58:40 Jan 7 07:58 am Jan 7 4:58 am
1039.00 01/07/2019 08:00:00 Jan 7 03:00 am Jan 7 12:00 am
1039.00 01/07/2019 06:58:08 Jan 7 01:58 am Jan 6 10:58 pm
1045.00 01/07/2019 05:58:24 Jan 7 12:58 am Jan 6 9:58 pm
1094.00 01/07/2019 04:58:40 Jan 6 11:58 pm Jan 6 8:58 pm
1052.00 01/07/2019 03:58:56 Jan 6 10:58 pm Jan 6 7:58 pm
1045.00 01/07/2019 02:59:12 Jan 6 09:59 pm Jan 6 6:59 pm
1059.00 01/07/2019 01:59:28 Jan 6 08:59 pm Jan 6 5:59 pm
1059.00 01/07/2019 00:59:44 Jan 6 07:59 pm Jan 6 4:59 pm
1066.00 01/07/2019 00:00:00 Jan 6 07:00 pm Jan 6 4:00 pm
1073.00 01/06/2019 22:58:08 Jan 6 05:58 pm Jan 6 2:58 pm
1073.00 01/06/2019 21:58:24 Jan 6 04:58 pm Jan 6 1:58 pm
1087.00 01/06/2019 20:58:40 Jan 6 03:58 pm Jan 6 12:58 pm
1087.00 01/06/2019 19:58:56 Jan 6 02:58 pm Jan 6 11:58 am
1080.00 01/06/2019 18:59:12 Jan 6 01:59 pm Jan 6 10:59 am
1094.00 01/06/2019 17:59:28 Jan 6 12:59 pm Jan 6 9:59 am
1094.00 01/06/2019 16:00:00 Jan 6 11:00 am Jan 6 8:00 am
1101.00 01/06/2019 14:58:08 Jan 6 09:58 am Jan 6 6:58 am
1101.00 01/06/2019 13:58:24 Jan 6 08:58 am Jan 6 5:58 am
1115.00 01/06/2019 12:58:40 Jan 6 07:58 am Jan 6 4:58 am
1115.00 01/06/2019 11:58:56 Jan 6 06:58 am Jan 6 3:58 am
1130.00 01/06/2019 10:59:12 Jan 6 05:59 am Jan 6 2:59 am
1130.00 01/06/2019 09:59:28 Jan 6 04:59 am Jan 6 1:59 am
1137.00 01/06/2019 08:59:44 Jan 6 03:59 am Jan 6 12:59 am
1137.00 01/06/2019 08:00:00 Jan 6 03:00 am Jan 6 12:00 am
1144.00 01/06/2019 06:58:08 Jan 6 01:58 am Jan 5 10:58 pm
1158.00 01/06/2019 05:58:24 Jan 6 12:58 am Jan 5 9:58 pm
1249.00 01/06/2019 04:58:40 Jan 5 11:58 pm Jan 5 8:58 pm
1172.00 01/06/2019 03:58:56 Jan 5 10:58 pm Jan 5 7:58 pm
1179.00 01/06/2019 02:59:12 Jan 5 09:59 pm Jan 5 6:59 pm
1179.00 01/06/2019 01:59:28 Jan 5 08:59 pm Jan 5 5:59 pm
1200.00 01/06/2019 00:59:44 Jan 5 07:59 pm Jan 5 4:59 pm
1193.00 01/06/2019 00:00:00 Jan 5 07:00 pm Jan 5 4:00 pm
1200.00 01/05/2019 22:58:08 Jan 5 05:58 pm Jan 5 2:58 pm
1207.00 01/05/2019 21:58:24 Jan 5 04:58 pm Jan 5 1:58 pm
1207.00 01/05/2019 20:58:40 Jan 5 03:58 pm Jan 5 12:58 pm
1214.00 01/05/2019 19:58:56 Jan 5 02:58 pm Jan 5 11:58 am
1221.00 01/05/2019 18:59:12 Jan 5 01:59 pm Jan 5 10:59 am
1235.00 01/05/2019 17:59:28 Jan 5 12:59 pm Jan 5 9:59 am
1264.00 01/05/2019 16:00:00 Jan 5 11:00 am Jan 5 8:00 am
1249.00 01/05/2019 14:58:08 Jan 5 09:58 am Jan 5 6:58 am
1264.00 01/05/2019 13:58:24 Jan 5 08:58 am Jan 5 5:58 am
1278.00 01/05/2019 12:58:40 Jan 5 07:58 am Jan 5 4:58 am
1278.00 01/05/2019 11:58:56 Jan 5 06:58 am Jan 5 3:58 am
1292.00 01/05/2019 10:59:12 Jan 5 05:59 am Jan 5 2:59 am
1299.00 01/05/2019 09:59:28 Jan 5 04:59 am Jan 5 1:59 am
1327.00 01/05/2019 08:59:44 Jan 5 03:59 am Jan 5 12:59 am
1327.00 01/05/2019 08:00:00 Jan 5 03:00 am Jan 5 12:00 am
1341.00 01/05/2019 06:58:08 Jan 5 01:58 am Jan 4 10:58 pm
1348.00 01/05/2019 05:58:24 Jan 5 12:58 am Jan 4 9:58 pm
1369.00 01/05/2019 04:58:40 Jan 4 11:58 pm Jan 4 8:58 pm
1369.00 01/05/2019 02:59:12 Jan 4 09:59 pm Jan 4 6:59 pm
1355.00 01/05/2019 01:59:28 Jan 4 08:59 pm Jan 4 5:59 pm
1341.00 01/05/2019 00:59:44 Jan 4 07:59 pm Jan 4 4:59 pm
1341.00 01/05/2019 00:00:00 Jan 4 07:00 pm Jan 4 4:00 pm
1327.00 01/04/2019 22:58:08 Jan 4 05:58 pm Jan 4 2:58 pm
1355.00 01/04/2019 21:58:24 Jan 4 04:58 pm Jan 4 1:58 pm
1355.00 01/04/2019 20:58:40 Jan 4 03:58 pm Jan 4 12:58 pm
1376.00 01/04/2019 19:58:56 Jan 4 02:58 pm Jan 4 11:58 am
1376.00 01/04/2019 18:59:12 Jan 4 01:59 pm Jan 4 10:59 am
1383.00 01/04/2019 17:59:28 Jan 4 12:59 pm Jan 4 9:59 am
1355.00 01/04/2019 16:00:00 Jan 4 11:00 am Jan 4 8:00 am
1334.00 01/04/2019 14:58:08 Jan 4 09:58 am Jan 4 6:58 am
1313.00 01/04/2019 13:58:24 Jan 4 08:58 am Jan 4 5:58 am
1285.00 01/04/2019 12:58:40 Jan 4 07:58 am Jan 4 4:58 am
1242.00 01/04/2019 11:58:56 Jan 4 06:58 am Jan 4 3:58 am
1214.00 01/04/2019 10:59:12 Jan 4 05:59 am Jan 4 2:59 am
1193.00 01/04/2019 09:59:28 Jan 4 04:59 am Jan 4 1:59 am
1193.00 01/04/2019 08:59:44 Jan 4 03:59 am Jan 4 12:59 am
1179.00 01/04/2019 08:00:00 Jan 4 03:00 am Jan 4 12:00 am
1186.00 01/04/2019 06:58:08 Jan 4 01:58 am Jan 3 10:58 pm
1179.00 01/04/2019 05:58:24 Jan 4 12:58 am Jan 3 9:58 pm
1186.00 01/04/2019 04:58:40 Jan 3 11:58 pm Jan 3 8:58 pm
1186.00 01/04/2019 02:59:12 Jan 3 09:59 pm Jan 3 6:59 pm
1200.00 01/04/2019 01:59:28 Jan 3 08:59 pm Jan 3 5:59 pm
1214.00 01/04/2019 00:59:44 Jan 3 07:59 pm Jan 3 4:59 pm
1221.00 01/04/2019 00:00:00 Jan 3 07:00 pm Jan 3 4:00 pm
1235.00 01/03/2019 22:58:08 Jan 3 05:58 pm Jan 3 2:58 pm
1235.00 01/03/2019 21:58:24 Jan 3 04:58 pm Jan 3 1:58 pm
1151.00 01/03/2019 17:59:28 Jan 3 12:59 pm Jan 3 9:59 am
-999.00 01/03/2019 16:00:00 Jan 3 11:00 am Jan 3 8:00 am
-999.00 01/03/2019 14:58:08 Jan 3 09:58 am Jan 3 6:58 am
-999.00 01/03/2019 13:58:24 Jan 3 08:58 am Jan 3 5:58 am
-999.00 01/03/2019 12:58:40 Jan 3 07:58 am Jan 3 4:58 am
-999.00 01/03/2019 11:58:56 Jan 3 06:58 am Jan 3 3:58 am
-999.00 01/03/2019 10:59:12 Jan 3 05:59 am Jan 3 2:59 am
-999.00 01/03/2019 09:59:28 Jan 3 04:59 am Jan 3 1:59 am
-999.00 01/03/2019 02:59:12 Jan 2 09:59 pm Jan 2 6:59 pm
1158.00 01/02/2019 05:58:24 Jan 2 12:58 am Jan 1 9:58 pm
1221.00 01/02/2019 04:58:40 Jan 1 11:58 pm Jan 1 8:58 pm
1158.00 01/02/2019 00:00:00 Jan 1 07:00 pm Jan 1 4:00 pm
1158.00 01/01/2019 21:58:24 Jan 1 04:58 pm Jan 1 1:58 pm
1158.00 01/01/2019 20:58:40 Jan 1 03:58 pm Jan 1 12:58 pm
1165.00 01/01/2019 19:58:56 Jan 1 02:58 pm Jan 1 11:58 am
1186.00 01/01/2019 18:59:12 Jan 1 01:59 pm Jan 1 10:59 am
1193.00 01/01/2019 17:59:28 Jan 1 12:59 pm Jan 1 9:59 am
1221.00 01/01/2019 16:00:00 Jan 1 11:00 am Jan 1 8:00 am
1249.00 01/01/2019 14:58:08 Jan 1 09:58 am Jan 1 6:58 am
1256.00 01/01/2019 13:58:24 Jan 1 08:58 am Jan 1 5:58 am
1285.00 01/01/2019 12:58:40 Jan 1 07:58 am Jan 1 4:58 am
1292.00 01/01/2019 11:58:56 Jan 1 06:58 am Jan 1 3:58 am
1285.00 01/01/2019 10:59:12 Jan 1 05:59 am Jan 1 2:59 am
1249.00 01/01/2019 08:59:44 Jan 1 03:59 am Jan 1 12:59 am
1221.00 01/01/2019 08:00:00 Jan 1 03:00 am Jan 1 12:00 am
1214.00 01/01/2019 06:58:08 Jan 1 01:58 am Dec 31 10:58 pm
1200.00 01/01/2019 05:58:24 Jan 1 12:58 am Dec 31 9:58 pm
1158.00 01/01/2019 04:58:40 Dec 31 11:58 pm Dec 31 8:58 pm
1165.00 01/01/2019 03:58:56 Dec 31 10:58 pm Dec 31 7:58 pm
1144.00 01/01/2019 02:59:12 Dec 31 09:59 pm Dec 31 6:59 pm
1151.00 01/01/2019 01:59:28 Dec 31 08:59 pm Dec 31 5:59 pm

Report - Reports of Related Gauges

Reports give the public a chance to report on river conditions throughout the country as well as log the history of a river.

Reports

No Reports Filed

Linked Reaches

Click a heading to sort. Hover over a heading for help.
River Name/Section Class Level running? Updated
Cooper Creek [GA] USFS Route 33 to Mulky Creek Camp - Toccoa river trib. II-III 808 cfs
0 cfs/hr
R0-
Lower Runnable
-05h47m
Sea Creek [IND-GOA] Polecat Falls IV 808 cfs
0 cfs/hr
R0-
Lower Runnable
-05h47m
Sea Creek [IND-GOA] Polecat Falls IV 808 cfs
0 cfs/hr
R0-
Lower Runnable
-05h47m
Sea Creek [IND-GOA] Polecat Falls IV 808 cfs
0 cfs/hr
R0-
Lower Runnable
-05h47m
Sea Creek [GA] Polecat Falls IV 808 cfs
0 cfs/hr
R0-
Lower Runnable
-05h47m
Toccoa [GA] Deep Hole Recreation Area to Sandy Bottoms I-II(III) 808 cfs
0 cfs/hr
R0-
Lower Runnable
-05h47m
Toccoa [GA] Sandy Bottoms to Tilley Bend I-II 808 cfs
0 cfs/hr
R0-
Lower Runnable
-05h47m